Flag for U.S.A. Weather past 2 weeks in Sacramento, California, U.S.A.

Now
63 °F

Sunny.


Feels Like: 63 °F
Forecast: 50 / 75 °F
Wind: No wind

Location: Sacramento Executive Airport

Current Time: Oct 21, 2014 at 7:34:05 PM

Latest Report: Oct 21, 2014 at 6:53 PM


Visibility: 10 mi

Pressure: 29.99 "Hg

Humidity: 48%

Dew point: 43 °F

Location of SacramentoLocation

Historic Weather in Sacramento — Graph

°F

Sacramento temperature yesterday

Maximum temperature yesterday: 72 °F (at 12:53 PM)
Minimum temperature yesterday: 56 °F (at 11:53 PM)
Average temperature yesterday: 65 °F

Past Weeks' High & Low Weather Summary

 TemperatureHumidityPressure
High96 °F (Oct 8, 2:53 PM)93% (Oct 15, 4:53 AM)30.10 "Hg (Oct 15, 4:53 AM)
Low48 °F (Oct 21, 5:53 AM)10% (Oct 12, 2:53 PM)29.77 "Hg (Oct 7, 5:53 PM)
Average68 °F58%29.92 "Hg
* Reported Oct 6 5:53 PM — Oct 21 5:53 PM, Sacramento, Weather by CustomWeather, © 2014

Note: Actual official high and low records may vary slightly from our data, if they occured in-between our weather recording intervals... More about our weather records

Advertising

Sacramento weather history for previous 24 hours

 ConditionsComfort  
Time TempWeatherWind HumidityBarometerVisibility
5:53 PM
Oct 21
70 °FSunny.7 mph32%29.99 "Hg10 mi
4:53 PM72 °FSunny.10 mph31%29.99 "Hg10 mi
3:53 PM73 °FSunny.10 mph32%30.01 "Hg10 mi
2:53 PM73 °FSunny.14 mph34%30.01 "Hg10 mi
1:53 PM71 °FSunny.8 mph39%30.03 "Hg10 mi
12:53 PM69 °FSunny.10 mph44%30.06 "Hg10 mi
11:53 AM66 °FSunny.9 mph50%30.08 "Hg10 mi
10:53 AM63 °FSunny.10 mph58%30.10 "Hg10 mi
9:53 AM59 °FSunny.3 mph72%30.10 "Hg10 mi
8:53 AM56 °FSunny.3 mph81%30.10 "Hg10 mi
7:53 AM49 °FClear.No wind90%30.09 "Hg10 mi
6:53 AM49 °FClear.No wind93%30.08 "Hg10 mi
5:53 AM48 °FClear.No wind93%30.07 "Hg10 mi
4:53 AM51 °FClear.No wind92%30.06 "Hg10 mi
3:53 AM53 °FClear.No wind89%30.06 "Hg10 mi
2:53 AM53 °FClear.6 mph83%30.07 "Hg10 mi
1:53 AM54 °FClear.3 mph77%30.05 "Hg10 mi
12:53 AM56 °FClear.6 mph77%30.05 "Hg10 mi
11:53 PM
Oct 20
56 °FClear.No wind77%30.04 "Hg10 mi
10:53 PM58 °FClear.6 mph78%30.02 "Hg10 mi
9:53 PM60 °FClear.7 mph72%30.00 "Hg10 mi
8:53 PM62 °FClear.8 mph67%29.98 "Hg10 mi
7:53 PM64 °FClear.7 mph61%29.96 "Hg10 mi
Weather by CustomWeather, © 2014

See weather overviewHow to use our weather pages